QPF
0.00 0.00 0.00 0.01 0.00 0.00 0.00 0.00 0.00 0.01 0.00 0.01 0.01 0.01 0.01 0.00 0.01 0.01 0.01 0.01 0.00 0.00 0.00 0.00 0.00 0.01 0.01 0.01 0.01 0.01 0.01 0.01 0.01 0.01 0.01 0.01 0.01 0.01 0.01 0.00 0.00 0.00 0.00
0.00 0.00 0.00 0.00 0.00 0.00 0.00 0.00 0.00 0.00 0.00 0.01 0.01 0.01 0.01 0.00 0.01 0.01 0.01 0.00 0.00 0.00 0.00 0.00 0.00 0.01 0.01 0.01 0.01 0.01 0.01 0.00 0.00 0.00 0.00 0.01 0.01 0.01 0.01 0.01 0.01 0.00 0.00
0.00 0.00 0.00 0.00 0.00 0.00 0.00 0.00 0.00 0.00 0.00 0.01 0.01 0.01 0.01 0.01 0.01 0.00 0.00 0.00 0.00 0.00 0.00 0.00 0.00 0.00 0.01 0.01 0.01 0.01 0.00 0.00 0.00 0.00 0.00 0.00 0.01 0.01 0.01 0.01 0.01 0.01 0.01
0.00 0.00 0.00 0.00 0.00 0.00 0.00 0.00 0.00 0.00 0.00 0.01 0.01 0.00 0.00 0.01 0.00 0.00 0.00 0.00 0.00 0.00 0.00 0.00 0.00 0.00 0.00 0.00 0.00 0.00 0.00 0.00 0.00 0.00 0.00 0.00 0.00 0.01 0.01 0.01 0.01 0.01 0.01
0.00 0.00 0.00 0.00 0.00 0.00 0.00 0.00 0.00 0.00 0.00 0.00 0.01 0.00 0.00 0.00 0.00 0.00 0.00 0.00 0.00 0.00 0.00 0.00 0.00 0.00 0.00 0.00 0.00 0.00 0.00 0.00 0.00 0.00 0.00 0.00 0.00 0.01 0.01 0.01 0.00 0.00 0.00
0.00 0.00 0.00 0.00 0.00 0.00 0.00 0.00 0.00 0.00 0.00 0.00 0.00 0.00 0.00 0.00 0.00 0.00 0.00 0.00 0.00 0.00 0.00 0.00 0.00 0.00 0.00 0.00 0.00 0.00 0.00 0.00 0.00 0.00 0.00 0.00 0.00 0.01 0.01 0.00 0.00 0.00 0.01
0.00 0.00 0.00 0.00 0.00 0.00 0.00 0.00 0.00 0.00 0.00 0.00 0.00 0.00 0.00 0.00 0.00 0.00 0.00 0.00 0.00 0.00 0.00 0.00 0.00 0.00 0.00 0.00 0.00 0.00 0.00 0.00 0.00 0.00 0.00 0.00 0.00 0.00 0.00 0.00 0.00 0.00 0.00
0.00 0.00 0.00 0.00 0.00 0.00 0.01 0.01 0.01 0.00 0.00 0.00 0.00 0.00 0.00 0.00 0.00 0.00 0.00 0.00 0.00 0.00 0.00 0.00 0.00 0.00 0.00 0.00 0.00 0.00 0.00 0.00 0.00 0.00 0.00 0.00 0.00 0.00 0.00 0.00 0.00 0.00 0.00
0.00 0.00 0.00 0.00 0.00 0.00 0.01 0.01 0.01 0.01 0.01 0.01 0.00 0.00 0.00 0.00 0.00 0.00 0.00 0.00 0.00 0.00 0.00 0.00 0.00 0.00 0.00 0.00 0.00 0.00 0.00 0.00 0.00 0.00 0.00 0.00 0.00 0.00 0.00 0.00 0.00 0.00 0.00
0.00 0.00 0.00 0.00 0.00 0.00 0.00 0.01 0.01 0.01 0.01 0.01 0.01 0.00 0.00 0.00 0.00 0.00 0.00 0.00 0.00 0.00 0.00 0.00 0.00 0.00 0.00 0.00 0.00 0.00 0.00 0.00 0.00 0.00 0.00 0.00 0.00 0.00 0.00 0.00 0.00 0.00 0.00
0.00 0.00 0.00 0.00 0.00 0.00 0.00 0.00 0.01 0.01 0.01 0.01 0.01 0.00 0.00 0.00 0.00 0.00 0.00 0.00 0.00 0.00 0.00 0.00 0.00 0.00 0.00 0.00 0.00 0.00 0.00 0.00 0.00 0.00 0.00 0.00 0.00 0.00 0.00 0.00 0.00 0.00 0.00
0.00 0.00 0.00 0.00 0.00 0.00 0.00 0.00 0.00 0.00 0.01 0.01 0.00 0.00 0.00 0.00 0.00 0.00 0.00 0.00 0.00 0.00 0.00 0.00 0.00 0.00 0.00 0.00 0.00 0.00 0.00 0.00 0.00 0.00 0.00 0.00 0.00 0.00 0.00 0.00 0.00 0.00 0.00
0.00 0.00 0.00 0.00 0.00 0.00 0.00 0.00 0.00 0.00 0.00 0.00 0.00 0.00 0.00 0.00 0.00 0.00 0.00 0.00 0.00 0.00 0.00 0.00 0.00 0.00 0.00 0.00 0.00 0.00 0.00 0.00 0.00 0.00 0.00 0.00 0.00 0.00 0.00 0.00 0.00 0.00 0.00
0.00 0.00 0.00 0.00 0.00 0.00 0.00 0.00 0.00 0.00 0.00 0.00 0.00 0.00 0.00 0.00 0.00 0.00 0.00 0.00 0.00 0.00 0.00 0.00 0.00 0.00 0.00 0.00 0.00 0.00 0.00 0.00 0.00 0.00 0.00 0.00 0.00 0.00 0.00 0.00 0.00 0.00 0.00
0.00 0.00 0.00 0.00 0.00 0.00 0.00 0.00 0.00 0.00 0.00 0.00 0.00 0.00 0.00 0.00 0.00 0.00 0.00 0.00 0.00 0.00 0.00 0.00 0.00 0.00 0.00 0.00 0.00 0.00 0.00 0.00 0.00 0.00 0.00 0.00 0.00 0.00 0.00 0.00 0.00 0.00 0.00
0.00 0.00 0.00 0.00 0.00 0.00 0.00 0.00 0.00 0.00 0.00 0.00 0.00 0.00 0.00 0.00 0.00 0.00 0.00 0.00 0.00 0.00 0.00 0.00 0.00 0.00 0.00 0.00 0.00 0.00 0.00 0.00 0.00 0.00 0.00 0.00 0.00 0.00 0.00 0.00 0.00 0.00 0.00
0.00 0.00 0.00 0.00 0.00 0.00 0.00 0.00 0.00 0.00 0.00 0.00 0.00 0.00 0.00 0.00 0.00 0.00 0.00 0.00 0.00 0.00 0.00 0.00 0.00 0.00 0.00 0.00 0.00 0.00 0.00 0.00 0.00 0.00 0.00 0.00 0.00 0.00 0.00 0.00 0.00 0.00 0.00
0.00 0.00 0.00 0.00 0.00 0.00 0.00 0.00 0.00 0.00 0.00 0.00 0.00 0.00 0.00 0.00 0.00 0.00 0.00 0.00 0.00 0.00 0.00 0.00 0.00 0.00 0.00 0.00 0.00 0.00 0.00 0.00 0.00 0.00 0.00 0.00 0.00 0.00 0.00 0.00 0.00 0.00 0.00
0.00 0.00 0.00 0.00 0.00 0.00 0.00 0.00 0.00 0.00 0.00 0.00 0.00 0.00 0.00 0.00 0.00 0.00 0.00 0.00 0.00 0.00 0.00 0.00 0.00 0.00 0.00 0.00 0.00 0.00 0.00 0.00 0.00 0.00 0.00 0.00 0.00 0.00 0.00 0.00 0.00 0.00 0.00
0.00 0.00 0.00 0.00 0.00 0.00 0.00 0.00 0.00 0.00 0.00 0.00 0.00 0.00 0.00 0.00 0.00 0.00 0.00 0.00 0.00 0.00 0.00 0.00 0.00 0.00 0.00 0.00 0.00 0.00 0.00 0.00 0.00 0.00 0.00 0.00 0.00 0.00 0.00 0.00 0.00 0.00 0.00
0.00 0.00 0.00 0.00 0.00 0.00 0.00 0.00 0.00 0.00 0.00 0.00 0.00 0.00 0.00 0.00 0.00 0.00 0.00 0.00 0.00 0.00 0.00 0.00 0.00 0.00 0.00 0.00 0.00 0.00 0.00 0.00 0.00 0.00 0.00 0.00 0.00 0.00 0.00 0.00 0.00 0.00 0.00
0.00 0.00 0.00 0.00 0.00 0.00 0.00 0.00 0.00 0.00 0.00 0.00 0.00 0.00 0.00 0.00 0.00 0.00 0.00 0.00 0.00 0.00 0.00 0.00 0.00 0.00 0.00 0.00 0.00 0.00 0.00 0.00 0.00 0.00 0.00 0.00 0.00 0.00 0.00 0.00 0.00 0.00 0.00
0.00 0.00 0.00 0.00 0.00 0.00 0.00 0.00 0.00 0.00 0.00 0.00 0.00 0.00 0.00 0.00 0.00 0.00 0.00 0.00 0.00 0.00 0.00 0.00 0.00 0.00 0.00 0.00 0.00 0.00 0.00 0.00 0.00 0.00 0.00 0.00 0.00 0.00 0.00 0.00 0.00 0.00 0.00
0.00 0.00 0.00 0.00 0.00 0.00 0.00 0.00 0.00 0.00 0.00 0.00 0.00 0.00 0.00 0.00 0.00 0.00 0.00 0.00 0.00 0.00 0.00 0.00 0.00 0.00 0.00 0.00 0.00 0.00 0.00 0.00 0.00 0.00 0.00 0.00 0.00 0.00 0.00 0.00 0.00 0.00 0.00
0.00 0.00 0.00 0.00 0.00 0.00 0.00 0.00 0.00 0.00 0.00 0.00 0.00 0.00 0.00 0.00 0.00 0.00 0.00 0.00 0.00 0.00 0.00 0.00 0.00 0.00 0.00 0.00 0.00 0.00 0.00 0.00 0.00 0.00 0.00 0.00 0.00 0.00 0.00 0.00 0.00 0.00 0.00
0.00 0.00 0.00 0.00 0.00 0.00 0.00 0.00 0.00 0.00 0.00 0.00 0.00 0.00 0.00 0.00 0.00 0.00 0.00 0.00 0.00 0.00 0.00 0.00 0.00 0.00 0.00 0.00 0.00 0.00 0.00 0.00 0.00 0.00 0.00 0.00 0.00 0.00 0.00 0.00 0.00 0.00 0.00
MSLP
1016.61 1016.75 1016.96 1017.25 1017.61 1018.01 1018.39 1018.72 1018.97 1019.14 1019.27 1019.37 1019.50 1019.69 1019.94 1020.24 1020.56 1020.86 1021.08 1021.22 1021.26 1021.23 1021.15 1021.07 1021.00 1020.97 1020.98 1021.02 1021.07 1021.11 1021.12 1021.10 1021.06 1020.99 1020.92 1020.84 1020.77 1020.69 1020.61 1020.54 1020.46 1020.39 1020.33
1016.14 1016.34 1016.63 1017.02 1017.49 1017.98 1018.43 1018.82 1019.10 1019.31 1019.45 1019.58 1019.75 1019.98 1020.27 1020.62 1020.98 1021.31 1021.56 1021.71 1021.77 1021.75 1021.70 1021.63 1021.59 1021.58 1021.60 1021.64 1021.68 1021.69 1021.67 1021.62 1021.54 1021.45 1021.37 1021.29 1021.23 1021.17 1021.10 1021.04 1020.97 1020.91 1020.86
1015.64 1015.90 1016.28 1016.77 1017.33 1017.91 1018.44 1018.89 1019.23 1019.47 1019.65 1019.83 1020.04 1020.31 1020.64 1021.01 1021.38 1021.71 1021.96 1022.10 1022.16 1022.15 1022.10 1022.06 1022.05 1022.06 1022.11 1022.15 1022.19 1022.19 1022.15 1022.07 1021.98 1021.89 1021.81 1021.75 1021.70 1021.65 1021.61 1021.56 1021.50 1021.44 1021.39
1015.19 1015.51 1015.97 1016.55 1017.19 1017.85 1018.44 1018.94 1019.33 1019.62 1019.85 1020.07 1020.32 1020.62 1020.97 1021.34 1021.71 1022.01 1022.23 1022.35 1022.39 1022.38 1022.35 1022.34 1022.36 1022.41 1022.49 1022.56 1022.60 1022.60 1022.55 1022.48 1022.39 1022.30 1022.23 1022.19 1022.16 1022.14 1022.11 1022.07 1022.02 1021.96 1021.90
1014.86 1015.24 1015.76 1016.41 1017.12 1017.82 1018.46 1019.00 1019.42 1019.74 1020.01 1020.25 1020.53 1020.85 1021.20 1021.57 1021.90 1022.17 1022.35 1022.45 1022.48 1022.47 1022.47 1022.49 1022.56 1022.66 1022.77 1022.87 1022.93 1022.94 1022.90 1022.83 1022.75 1022.68 1022.63 1022.60 1022.59 1022.59 1022.57 1022.54 1022.50 1022.44 1022.37
1014.68 1015.11 1015.69 1016.38 1017.12 1017.85 1018.50 1019.05 1019.47 1019.81 1020.09 1020.35 1020.64 1020.97 1021.32 1021.66 1021.97 1022.21 1022.37 1022.44 1022.47 1022.48 1022.51 1022.58 1022.70 1022.85 1023.00 1023.13 1023.21 1023.24 1023.21 1023.15 1023.08 1023.02 1022.98 1022.97 1022.98 1022.98 1022.97 1022.95 1022.90 1022.84 1022.78
1014.63 1015.11 1015.72 1016.43 1017.18 1017.90 1018.54 1019.07 1019.49 1019.81 1020.09 1020.36 1020.65 1020.98 1021.33 1021.66 1021.95 1022.17 1022.31 1022.39 1022.44 1022.48 1022.56 1022.68 1022.85 1023.04 1023.23 1023.38 1023.48 1023.51 1023.49 1023.43 1023.37 1023.32 1023.29 1023.29 1023.29 1023.30 1023.29 1023.26 1023.21 1023.16 1023.11
1014.68 1015.18 1015.81 1016.53 1017.27 1017.97 1018.57 1019.07 1019.45 1019.76 1020.02 1020.29 1020.59 1020.92 1021.26 1021.60 1021.88 1022.11 1022.26 1022.36 1022.43 1022.52 1022.64 1022.81 1023.02 1023.25 1023.46 1023.62 1023.73 1023.76 1023.74 1023.68 1023.62 1023.57 1023.54 1023.54 1023.54 1023.54 1023.52 1023.48 1023.43 1023.37 1023.33
1014.75 1015.27 1015.91 1016.62 1017.33 1018.00 1018.57 1019.02 1019.38 1019.66 1019.92 1020.19 1020.49 1020.83 1021.19 1021.53 1021.83 1022.07 1022.25 1022.37 1022.48 1022.61 1022.77 1022.97 1023.21 1023.45 1023.67 1023.83 1023.93 1023.96 1023.93 1023.87 1023.80 1023.75 1023.72 1023.71 1023.71 1023.69 1023.66 1023.61 1023.54 1023.48 1023.44
1014.77 1015.30 1015.94 1016.64 1017.34 1017.97 1018.51 1018.94 1019.27 1019.55 1019.81 1020.09 1020.41 1020.77 1021.14 1021.50 1021.82 1022.08 1022.28 1022.43 1022.57 1022.72 1022.90 1023.12 1023.36 1023.60 1023.81 1023.96 1024.05 1024.06 1024.03 1023.97 1023.90 1023.85 1023.81 1023.80 1023.78 1023.76 1023.70 1023.64 1023.55 1023.48 1023.43
1014.71 1015.24 1015.88 1016.57 1017.26 1017.88 1018.40 1018.81 1019.15 1019.44 1019.71 1020.02 1020.36 1020.74 1021.13 1021.51 1021.85 1022.12 1022.33 1022.50 1022.65 1022.80 1022.98 1023.18 1023.41 1023.63 1023.82 1023.96 1024.03 1024.04 1024.01 1023.95 1023.89 1023.84 1023.81 1023.78 1023.76 1023.72 1023.65 1023.57 1023.47 1023.38 1023.32
1014.56 1015.09 1015.73 1016.42 1017.10 1017.71 1018.24 1018.67 1019.02 1019.33 1019.65 1019.98 1020.35 1020.75 1021.16 1021.54 1021.88 1022.16 1022.36 1022.52 1022.66 1022.79 1022.94 1023.12 1023.32 1023.51 1023.67 1023.80 1023.86 1023.87 1023.84 1023.79 1023.74 1023.70 1023.67 1023.65 1023.62 1023.57 1023.50 1023.40 1023.28 1023.17 1023.09
1014.35 1014.89 1015.52 1016.21 1016.88 1017.50 1018.04 1018.50 1018.89 1019.24 1019.59 1019.95 1020.35 1020.76 1021.17 1021.55 1021.88 1022.14 1022.32 1022.46 1022.56 1022.66 1022.77 1022.91 1023.07 1023.22 1023.37 1023.47 1023.53 1023.55 1023.53 1023.49 1023.45 1023.42 1023.40 1023.38 1023.35 1023.30 1023.22 1023.11 1022.99 1022.86 1022.75
1014.15 1014.68 1015.30 1015.97 1016.64 1017.27 1017.84 1018.33 1018.76 1019.15 1019.53 1019.92 1020.33 1020.73 1021.13 1021.49 1021.80 1022.03 1022.19 1022.29 1022.36 1022.41 1022.49 1022.58 1022.69 1022.82 1022.94 1023.03 1023.10 1023.12 1023.11 1023.08 1023.04 1023.01 1022.98 1022.96 1022.93 1022.88 1022.81 1022.71 1022.59 1022.46 1022.33
1014.02 1014.52 1015.11 1015.76 1016.42 1017.06 1017.64 1018.17 1018.63 1019.06 1019.46 1019.86 1020.26 1020.65 1021.02 1021.35 1021.62 1021.82 1021.95 1022.03 1022.07 1022.09 1022.13 1022.19 1022.27 1022.37 1022.47 1022.55 1022.61 1022.64 1022.62 1022.59 1022.54 1022.49 1022.45 1022.41 1022.37 1022.33 1022.27 1022.19 1022.09 1021.97 1021.84
1014.00 1014.45 1015.00 1015.62 1016.26 1016.89 1017.49 1018.04 1018.53 1018.97 1019.38 1019.76 1020.13 1020.49 1020.82 1021.11 1021.36 1021.53 1021.65 1021.72 1021.75 1021.76 1021.78 1021.81 1021.88 1021.96 1022.04 1022.11 1022.16 1022.17 1022.13 1022.07 1021.99 1021.90 1021.81 1021.75 1021.70 1021.66 1021.62 1021.57 1021.51 1021.41 1021.30
1014.10 1014.50 1014.99 1015.56 1016.17 1016.79 1017.39 1017.95 1018.45 1018.90 1019.29 1019.64 1019.97 1020.27 1020.56 1020.81 1021.03 1021.21 1021.33 1021.41 1021.45 1021.47 1021.50 1021.53 1021.58 1021.65 1021.72 1021.77 1021.79 1021.77 1021.70 1021.58 1021.44 1021.29 1021.15 1021.04 1020.96 1020.91 1020.89 1020.88 1020.86 1020.81 1020.73
1014.33 1014.65 1015.08 1015.59 1016.17 1016.78 1017.38 1017.94 1018.44 1018.87 1019.23 1019.53 1019.80 1020.04 1020.27 1020.49 1020.69 1020.87 1021.02 1021.13 1021.21 1021.27 1021.32 1021.36 1021.41 1021.47 1021.52 1021.54 1021.53 1021.47 1021.34 1021.17 1020.95 1020.72 1020.51 1020.33 1020.21 1020.15 1020.13 1020.15 1020.17 1020.18 1020.14
1014.64 1014.89 1015.25 1015.71 1016.26 1016.85 1017.45 1018.01 1018.50 1018.90 1019.21 1019.45 1019.65 1019.83 1020.00 1020.18 1020.38 1020.57 1020.75 1020.91 1021.05 1021.15 1021.23 1021.29 1021.35 1021.40 1021.42 1021.42 1021.37 1021.26 1021.09 1020.84 1020.55 1020.24 1019.94 1019.69 1019.51 1019.42 1019.40 1019.43 1019.49 1019.53 1019.53
1015.01 1015.19 1015.49 1015.91 1016.42 1017.01 1017.60 1018.16 1018.63 1019.00 1019.26 1019.44 1019.56 1019.66 1019.78 1019.92 1020.10 1020.31 1020.53 1020.74 1020.92 1021.07 1021.18 1021.27 1021.33 1021.37 1021.38 1021.36 1021.28 1021.13 1020.91 1020.61 1020.25 1019.87 1019.49 1019.17 1018.92 1018.77 1018.72 1018.74 1018.81 1018.87 1018.90
1015.39 1015.52 1015.77 1016.15 1016.65 1017.22 1017.82 1018.37 1018.83 1019.16 1019.37 1019.48 1019.53 1019.56 1019.62 1019.72 1019.89 1020.10 1020.34 1020.59 1020.81 1020.99 1021.12 1021.22 1021.28 1021.31 1021.32 1021.28 1021.19 1021.02 1020.77 1020.44 1020.04 1019.60 1019.16 1018.76 1018.45 1018.23 1018.13 1018.11 1018.15 1018.21 1018.23
1015.76 1015.86 1016.07 1016.43 1016.91 1017.48 1018.06 1018.61 1019.05 1019.35 1019.51 1019.56 1019.55 1019.51 1019.51 1019.58 1019.72 1019.93 1020.17 1020.43 1020.66 1020.85 1020.99 1021.08 1021.14 1021.17 1021.17 1021.13 1021.04 1020.88 1020.64 1020.31 1019.89 1019.42 1018.94 1018.48 1018.09 1017.80 1017.61 1017.53 1017.51 1017.53 1017.53
1016.10 1016.18 1016.37 1016.70 1017.17 1017.72 1018.29 1018.82 1019.24 1019.52 1019.64 1019.65 1019.58 1019.50 1019.46 1019.48 1019.59 1019.78 1020.01 1020.25 1020.46 1020.64 1020.76 1020.84 1020.88 1020.89 1020.89 1020.87 1020.80 1020.67 1020.46 1020.16 1019.76 1019.28 1018.77 1018.26 1017.80 1017.43 1017.15 1016.98 1016.88 1016.82 1016.77
1016.40 1016.47 1016.65 1016.95 1017.39 1017.92 1018.46 1018.97 1019.36 1019.61 1019.72 1019.70 1019.61 1019.50 1019.43 1019.42 1019.50 1019.65 1019.85 1020.05 1020.23 1020.36 1020.44 1020.48 1020.50 1020.50 1020.50 1020.49 1020.46 1020.37 1020.20 1019.94 1019.57 1019.11 1018.59 1018.05 1017.54 1017.09 1016.72 1016.44 1016.24 1016.10 1015.98
1016.63 1016.71 1016.87 1017.15 1017.55 1018.03 1018.54 1019.00 1019.37 1019.61 1019.71 1019.69 1019.60 1019.49 1019.41 1019.39 1019.45 1019.56 1019.71 1019.85 1019.97 1020.05 1020.07 1020.07 1020.05 1020.03 1020.02 1020.03 1020.02 1019.97 1019.85 1019.63 1019.30 1018.87 1018.35 1017.79 1017.23 1016.71 1016.26 1015.89 1015.59 1015.36 1015.16
1016.79 1016.88 1017.03 1017.28 1017.62 1018.05 1018.50 1018.93 1019.27 1019.50 1019.61 1019.61 1019.55 1019.46 1019.40 1019.39 1019.43 1019.51 1019.61 1019.69 1019.74 1019.74 1019.70 1019.64 1019.57 1019.52 1019.50 1019.50 1019.51 1019.49 1019.39 1019.21 1018.91 1018.50 1018.00 1017.43 1016.84 1016.28 1015.76 1015.31 1014.93 1014.62 1014.36
Thickness
5733 5731 5727 5724 5721 5718 5716 5713 5711 5709 5708 5707 5705 5703 5702 5700 5699 5698 5698 5697 5697 5697 5697 5697 5697 5697 5697 5697 5698 5698 5698 5699 5700 5701 5701 5702 5703 5703 5703 5704 5704 5705 5706
5737 5731 5725 5722 5718 5715 5713 5710 5708 5706 5704 5702 5701 5699 5697 5696 5695 5693 5693 5692 5691 5691 5691 5691 5691 5691 5691 5691 5691 5691 5692 5692 5693 5694 5695 5695 5696 5697 5697 5698 5698 5699 5699
5737 5729 5724 5720 5716 5713 5710 5707 5704 5702 5700 5698 5697 5695 5693 5691 5690 5688 5687 5687 5686 5685 5685 5685 5685 5685 5685 5685 5685 5685 5686 5686 5688 5689 5689 5689 5690 5691 5691 5691 5692 5692 5693
5735 5728 5723 5718 5714 5711 5707 5704 5701 5699 5696 5694 5692 5690 5689 5687 5685 5684 5682 5681 5680 5680 5679 5679 5679 5679 5679 5679 5679 5679 5680 5681 5682 5683 5683 5683 5684 5685 5685 5685 5685 5686 5686
5734 5727 5722 5716 5712 5708 5705 5702 5698 5696 5693 5691 5688 5686 5684 5683 5681 5679 5677 5676 5675 5674 5674 5673 5673 5673 5673 5673 5673 5673 5674 5675 5676 5677 5677 5677 5678 5679 5679 5679 5679 5679 5680
5732 5726 5720 5715 5710 5707 5703 5699 5696 5693 5690 5687 5685 5683 5680 5678 5676 5674 5673 5671 5670 5669 5669 5668 5668 5668 5667 5668 5668 5668 5669 5670 5671 5672 5672 5672 5672 5673 5673 5673 5673 5673 5674
5731 5726 5718 5713 5708 5704 5700 5697 5693 5690 5687 5684 5681 5679 5677 5674 5672 5670 5668 5667 5665 5665 5664 5664 5663 5663 5662 5662 5663 5663 5663 5664 5666 5666 5666 5666 5666 5667 5667 5667 5667 5667 5668
5731 5725 5716 5711 5706 5702 5698 5694 5690 5687 5684 5681 5678 5675 5673 5671 5668 5666 5664 5662 5661 5660 5659 5659 5658 5658 5657 5657 5657 5658 5658 5659 5660 5661 5661 5661 5661 5661 5662 5662 5662 5662 5662
5730 5723 5714 5709 5704 5699 5695 5691 5687 5684 5680 5677 5674 5672 5669 5667 5665 5662 5660 5658 5657 5656 5655 5654 5653 5653 5652 5652 5652 5653 5653 5654 5655 5656 5656 5656 5656 5656 5657 5657 5657 5657 5657
5727 5722 5713 5706 5701 5696 5692 5688 5684 5680 5677 5674 5671 5668 5665 5663 5661 5659 5656 5654 5653 5651 5650 5650 5649 5648 5648 5648 5648 5648 5649 5650 5651 5652 5652 5651 5651 5651 5652 5652 5652 5652 5652
5722 5719 5712 5705 5699 5694 5689 5684 5680 5677 5673 5670 5667 5664 5661 5659 5657 5655 5653 5651 5649 5647 5646 5645 5645 5644 5644 5644 5644 5644 5645 5645 5647 5647 5647 5647 5647 5647 5647 5648 5648 5648 5648
5715 5714 5712 5705 5698 5692 5687 5682 5677 5673 5670 5666 5663 5660 5657 5655 5653 5651 5649 5647 5645 5643 5642 5641 5641 5640 5640 5640 5640 5640 5641 5641 5642 5643 5643 5643 5643 5643 5643 5644 5644 5644 5644
5715 5711 5709 5705 5698 5691 5685 5680 5675 5670 5667 5663 5660 5657 5654 5651 5649 5647 5645 5642 5640 5639 5638 5637 5637 5636 5636 5637 5637 5636 5636 5637 5638 5638 5639 5638 5638 5638 5639 5639 5640 5640 5640
5715 5709 5706 5703 5696 5689 5683 5677 5672 5668 5664 5660 5657 5653 5650 5648 5645 5643 5640 5638 5636 5635 5634 5633 5632 5632 5632 5632 5632 5632 5632 5632 5633 5633 5633 5633 5633 5633 5634 5634 5635 5635 5635
5713 5707 5703 5699 5693 5687 5680 5674 5670 5665 5660 5656 5653 5649 5646 5644 5641 5638 5636 5634 5632 5631 5630 5629 5628 5627 5627 5627 5627 5627 5627 5628 5628 5628 5628 5628 5628 5628 5628 5629 5629 5630 5630
5710 5704 5699 5695 5690 5683 5677 5671 5666 5662 5658 5653 5649 5645 5642 5639 5636 5634 5632 5630 5628 5627 5625 5624 5623 5622 5622 5622 5622 5622 5623 5623 5623 5623 5624 5624 5623 5623 5622 5623 5623 5624 5624
5706 5702 5695 5690 5686 5679 5673 5668 5663 5659 5654 5650 5646 5642 5638 5635 5632 5630 5627 5625 5623 5622 5620 5619 5618 5617 5617 5616 5616 5617 5617 5618 5618 5619 5619 5619 5619 5618 5618 5617 5617 5617 5618
5702 5696 5691 5686 5681 5675 5669 5664 5659 5655 5651 5646 5642 5638 5634 5631 5628 5625 5623 5620 5618 5617 5615 5614 5612 5610 5610 5609 5610 5611 5612 5613 5614 5614 5614 5615 5615 5614 5614 5612 5611 5611 5611
5695 5690 5684 5679 5675 5670 5665 5659 5654 5650 5645 5641 5636 5633 5629 5626 5623 5620 5618 5615 5613 5611 5610 5608 5606 5604 5603 5602 5603 5605 5606 5607 5608 5609 5610 5610 5610 5610 5609 5607 5605 5604 5603
5688 5683 5677 5673 5669 5664 5659 5653 5647 5642 5638 5634 5630 5626 5623 5620 5617 5615 5612 5610 5607 5605 5603 5601 5600 5598 5597 5596 5597 5599 5599 5601 5602 5603 5605 5606 5605 5604 5602 5601 5599 5597 5595
5679 5675 5670 5665 5661 5656 5650 5644 5638 5633 5630 5627 5624 5620 5617 5614 5612 5609 5606 5604 5601 5599 5597 5595 5593 5592 5590 5588 5587 5588 5592 5595 5598 5600 5601 5601 5600 5598 5596 5594 5592 5590 5588
5669 5666 5662 5658 5653 5648 5643 5638 5633 5628 5624 5621 5618 5615 5612 5609 5607 5604 5601 5599 5596 5593 5591 5589 5587 5584 5583 5580 5576 5573 5575 5584 5591 5596 5595 5594 5593 5591 5589 5586 5583 5581 5579
5660 5657 5654 5650 5645 5640 5635 5630 5625 5620 5616 5613 5610 5608 5606 5604 5602 5599 5596 5594 5591 5588 5585 5583 5581 5578 5575 5573 5569 5562 5559 5563 5572 5581 5583 5583 5582 5580 5578 5577 5574 5571 5569
5651 5649 5646 5641 5637 5632 5628 5622 5618 5613 5609 5607 5604 5602 5601 5599 5596 5593 5590 5587 5584 5582 5579 5577 5575 5571 5567 5563 5560 5558 5555 5551 5549 5557 5567 5568 5567 5565 5563 5562 5561 5560 5558
5644 5641 5637 5633 5628 5624 5620 5615 5611 5606 5603 5601 5598 5596 5594 5592 5590 5586 5583 5580 5577 5574 5571 5569 5566 5563 5559 5555 5551 5548 5545 5542 5539 5536 5545 5549 5551 5551 5549 5548 5547 5546 5544
5636 5633 5629 5625 5620 5616 5612 5607 5602 5598 5595 5592 5589 5587 5584 5583 5581 5579 5576 5572 5569 5566 5563 5560 5557 5554 5550 5546 5542 5538 5533 5528 5526 5523 5526 5531 5534 5536 5535 5533 5530 5528 5526